Air Resources Laboratory banner image
Air Resources Laboratory web site National Oceanic and Atmospheric Administration (NOAA)

ky zone


NYZ176-178-MAZ106-OHZ011-021-055-MIZ076-KYZ091-ILZ014-INZ047-
MNZ060-ONZ431-231900-

...Gateway Observations for Savannah International...

CITY           SKY/WX    TMP DP  RH WIND       PRES   REMARKS
Savannah Arpt  PTSUNNY   88  69  53 S9        30.08F HX  92
6HR MIN TEMP:  73; 6HR MAX TEMP:  89;

Atlanta        PTSUNNY   78  67  68 N8        30.08F
6HR MIN TEMP:  70; 6HR MAX TEMP:  78; 6HR PCP:  0.01;

Charlotte      PTSUNNY   85  69  58 SW6       30.07F
6HR MIN TEMP:  71; 6HR MAX TEMP:  85;

Dallas DFW     PTSUNNY   85  67  54 S8        30.04F
6HR MIN TEMP:  70; 6HR MAX TEMP:  87;

Houston Bush   PTSUNNY   76  70  82 VRB3      30.06S
6HR MIN TEMP:  71; 6HR MAX TEMP:  84; 6HR PCP:  0.17;

Wash National  FAIR      82  58  43 N20G29    30.03R
6HR MIN TEMP:  70; 6HR MAX TEMP:  82;

Wash Dulles    FAIR      79  60  52 NW13      30.04R
6HR MIN TEMP:  72; 6HR MAX TEMP:  79;

Baltimore      FAIR      79  58  48 NW18G28   30.01R
6HR MIN TEMP:  71; 6HR MAX TEMP:  80;

Philadelphia   PTSUNNY   78  60  53 NW14      29.97S
6HR MIN TEMP:  63; 6HR MAX TEMP:  78;

Newark         FAIR      78  58  49 NW8G22    29.94F
6HR MIN TEMP:  62; 6HR MAX TEMP:  78;

Laguardia      FAIR      75  58  55 NW9       29.94S
6HR MIN TEMP:  64; 6HR MAX TEMP:  75;

J F K          FAIR      76  61  59 NW16G22   29.95S
6HR MIN TEMP:  61; 6HR MAX TEMP:  76;

Boston         FAIR      70  57  63 E12       29.86S
6HR MIN TEMP:  62; 6HR MAX TEMP:  75;

Pittsburg      PTSUNNY   68  54  60 N6        30.17R
6HR MIN TEMP:  57; 6HR MAX TEMP:  69;

Akron          PTSUNNY   70  54  56 NE8       30.18F
6HR MIN TEMP:  57; 6HR MAX TEMP:  70;

Cleveland      FAIR      71  51  49 VRB3      30.20F
6HR MIN TEMP:  55; 6HR MAX TEMP:  71;

Cincinnati     FAIR      78  58  49 VRB5      30.16S
6HR MIN TEMP:  65; 6HR MAX TEMP:  78;

Columbus       PTSUNNY   72  58  61 MISG      30.17R
Detroit        FAIR      77  50  38 CALM      30.16F
6HR MIN TEMP:  59; 6HR MAX TEMP:  77;

Chicago O'Hare FAIR      76  51  41 VRB3      30.20R
6HR MIN TEMP:  56; 6HR MAX TEMP:  76;

Minneapolis    CLOUDY    76  61  59 VRB5      30.12F
6HR MIN TEMP:  64; 6HR MAX TEMP:  77;

Indianapolis   FAIR      79  54  41 NE8       30.16F
6HR MIN TEMP:  62; 6HR MAX TEMP:  79;

Toronto Canada MOSUNNY   77  57  50 N12G17    30.05F


NYZ176-178-MAZ106-OHZ011-021-055-MIZ076-KYZ091-ILZ014-INZ047-
MNZ060-ONZ431-231900-

...Gateway Observations for Savannah International...

CITY           SKY/WX    TMP DP  RH WIND       PRES   REMARKS
Savannah Arpt  PTSUNNY   88  69  53 S9        30.08F HX  92
6HR MIN TEMP:  73; 6HR MAX TEMP:  89;

Atlanta        PTSUNNY   78  67  68 N8        30.08F
6HR MIN TEMP:  70; 6HR MAX TEMP:  78; 6HR PCP:  0.01;

Charlotte      PTSUNNY   85  69  58 SW6       30.07F
6HR MIN TEMP:  71; 6HR MAX TEMP:  85;

Dallas DFW     PTSUNNY   85  67  54 S8        30.04F
6HR MIN TEMP:  70; 6HR MAX TEMP:  87;

Houston Bush   PTSUNNY   76  70  82 VRB3      30.06S
6HR MIN TEMP:  71; 6HR MAX TEMP:  84; 6HR PCP:  0.17;

Wash National  FAIR      82  58  43 N20G29    30.03R
6HR MIN TEMP:  70; 6HR MAX TEMP:  82;

Wash Dulles    FAIR      79  60  52 NW13      30.04R
6HR MIN TEMP:  72; 6HR MAX TEMP:  79;

Baltimore      FAIR      79  58  48 NW18G28   30.01R
6HR MIN TEMP:  71; 6HR MAX TEMP:  80;

Philadelphia   PTSUNNY   78  60  53 NW14      29.97S
6HR MIN TEMP:  63; 6HR MAX TEMP:  78;

Newark         FAIR      78  58  49 NW8G22    29.94F
6HR MIN TEMP:  62; 6HR MAX TEMP:  78;

Laguardia      FAIR      75  58  55 NW9       29.94S
6HR MIN TEMP:  64; 6HR MAX TEMP:  75;

J F K          FAIR      76  61  59 NW16G22   29.95S
6HR MIN TEMP:  61; 6HR MAX TEMP:  76;

Boston         FAIR      70  57  63 E12       29.86S
6HR MIN TEMP:  62; 6HR MAX TEMP:  75;

Pittsburg      PTSUNNY   68  54  60 N6        30.17R
6HR MIN TEMP:  57; 6HR MAX TEMP:  69;

Akron          PTSUNNY   70  54  56 NE8       30.18F
6HR MIN TEMP:  57; 6HR MAX TEMP:  70;

Cleveland      FAIR      71  51  49 VRB3      30.20F
6HR MIN TEMP:  55; 6HR MAX TEMP:  71;

Cincinnati     FAIR      78  58  49 VRB5      30.16S
6HR MIN TEMP:  65; 6HR MAX TEMP:  78;

Columbus       PTSUNNY   73  58  59 MISG      30.17R
Detroit        FAIR      77  50  38 CALM      30.16F
6HR MIN TEMP:  59; 6HR MAX TEMP:  77;

Chicago O'Hare FAIR      76  51  41 VRB3      30.20R
6HR MIN TEMP:  56; 6HR MAX TEMP:  76;

Minneapolis    CLOUDY    76  61  59 VRB5      30.12F
6HR MIN TEMP:  64; 6HR MAX TEMP:  77;

Indianapolis   FAIR      79  54  41 NE8       30.16F
6HR MIN TEMP:  62; 6HR MAX TEMP:  79;

Toronto Canada MOSUNNY   77  57  50 N12G17    30.05F